Location: Bay Creek Structure Number 5 Dam
(37.4851°N, 88.6884°W)
Time: 05:36:35
(UTC+00:00)

Cosmos 1844 Rocket - Pass Details

Date: 13 October 2019
Orbit: 826 x 843 km, 71.0° (Epoch: 17 November)

Event Time Altitude Azimuth Distance (km) Brightness Sun altitude
Rises 23:40:34 0° 188° (S) 3,383 6.0 -4.8°
Reaches altitude 10° 23:43:02 10° 184° (S) 2,452 5.3 -5.2°
Maximum altitude 23:48:31 56° 108° (ESE) 993 2.8 -6.3°
Drops below altitude 10° 23:54:02 10° 31° (NNE) 2,460 4.8 -7.4°
Sets 23:56:31 0° 27° (NNE) 3,396 5.5 -7.9°
